Location: Frizzleburg
(41.0764°N, 80.4548°W)
Time: 12:32:01
(UTC+00:00)

Tsikada Rocket - Pass Details

Date: 17 November 2019
Orbit: 958 x 1009 km, 82.9° (Epoch: 15 December)

Event Time Altitude Azimuth Distance (km) Brightness Sun altitude
Rises 11:37:52 0° 347° (NNW) 3,742 6.7 -6.7°
Reaches altitude 10° 11:40:29 10° 342° (NNW) 2,784 6.0 -6.3°
Maximum altitude 11:46:36 50° 269° (W) 1,247 4.3 -5.2°
Drops below altitude 10° 11:52:37 10° 196° (SSW) 2,736 6.4 -4.1°
Sets 11:55:11 0° 191° (S) 3,672 7.2 -3.7°
